Location: Colebrook
(42.0017°N, 73.0973°W)
Time: 08:59:36
(UTC-04:00)

Vanguard 3 - All Passes

Search period start: 25 October 2021 00:00
Search period end: 04 November 2021 00:00
Orbit: 510 x 3259 km, 33.3° (Epoch: 24 October)

Date Brightness Start Highest point End Pass type
(mag) Time Alt. Az. Time Alt. Az. Time Alt. Az.
25 Oct - 00:39:35 10° WSW 00:48:15 18° SW 00:58:44 10° S night (unlit)
25 Oct - 16:50:34 10° SSW 16:54:47 26° SSE 17:01:01 10° E daylight
25 Oct - 18:59:47 10° WSW 19:06:02 48° S 19:16:55 10° ESE visible
25 Oct - 21:10:26 10° W 21:18:47 43° SSW 21:32:39 10° SE visible
25 Oct - 23:23:11 10° WSW 23:32:33 25° SSW 23:45:20 10° SSE visible
26 Oct - 15:39:15 10° S 15:41:26 13° SE 15:44:00 10° ESE daylight
26 Oct - 17:46:50 10° SW 17:51:53 39° SSE 18:00:09 10° E daylight
26 Oct - 19:56:53 10° WSW 20:03:50 46° S 20:15:52 10° ESE visible
26 Oct - 22:08:20 10° W 22:17:01 32° SSW 22:30:12 10° SSE visible
27 Oct - 00:24:41 10° WSW 00:30:53 14° SW 00:38:05 10° S night (unlit)
27 Oct - 16:34:17 10° SSW 16:38:10 26° SSE 16:43:47 10° ESE daylight
27 Oct - 18:43:40 10° WSW 18:49:21 44° S 18:59:05 10° ESE visible
27 Oct - 20:54:19 10° WSW 21:01:50 37° SSW 21:14:10 10° SE visible
27 Oct - 23:07:27 10° WSW 23:15:19 20° SSW 23:25:48 10° S visible
28 Oct - 15:22:37 10° S 15:24:48 14° SSE 15:27:20 10° ESE daylight
28 Oct - 17:30:42 10° SW 17:35:18 37° SSE 17:42:39 10° ESE daylight
28 Oct - 19:40:47 10° WSW 19:47:05 41° S 19:57:43 10° ESE visible
28 Oct - 21:52:24 10° WSW 22:00:00 26° SSW 22:11:13 10° SSE visible
29 Oct - 16:18:02 10° SW 16:21:39 26° SSE 16:26:39 10° ESE daylight
29 Oct - 18:27:34 10° WSW 18:32:44 40° S 18:41:19 10° ESE visible
29 Oct - 20:38:19 10° WSW 20:45:00 31° SSW 20:55:37 10° SE visible
29 Oct - 22:52:15 10° WSW 22:58:14 16° SSW 23:05:45 10° S visible
30 Oct - 15:06:00 10° S 15:08:13 14° SSE 15:10:44 10° ESE daylight
30 Oct - 17:14:34 10° WSW 17:18:48 35° S 17:25:15 10° ESE daylight
30 Oct - 19:24:46 10° WSW 19:30:24 35° S 19:39:37 10° SE visible
30 Oct - 21:36:43 10° WSW 21:43:04 21° SSW 21:52:02 10° SSE visible
31 Oct - 16:01:46 10° SW 16:05:09 25° SSE 16:09:38 10° ESE daylight
31 Oct - 18:11:31 10° WSW 18:16:12 36° S 18:23:38 10° ESE visible
31 Oct - 20:22:27 10° WSW 20:28:15 26° SSW 20:37:02 10° SSE visible
31 Oct - 22:38:35 10° SW 22:41:16 11° SSW 22:44:13 10° SSW visible
01 Nov - 14:49:24 10° SSW 14:51:41 15° SSE 14:54:14 10° ESE daylight
01 Nov - 16:58:27 10° WSW 17:02:20 32° S 17:07:58 10° ESE daylight
01 Nov - 19:08:49 10° WSW 19:13:48 29° S 19:21:32 10° SE visible
01 Nov - 21:21:27 10° WSW 21:26:16 16° SSW 21:32:30 10° S visible
02 Nov - 15:45:30 10° SW 15:48:43 25° SSE 15:52:44 10° ESE daylight
02 Nov - 17:55:30 10° WSW 17:59:43 31° S 18:06:02 10° SE daylight
02 Nov - 20:06:48 10° WSW 20:11:35 20° SSW 20:18:20 10° SSE visible
03 Nov - 14:32:45 10° SSW 14:35:12 17° SSE 14:37:49 10° ESE daylight
03 Nov - 16:42:21 10° WSW 16:45:54 29° S 16:50:46 10° ESE daylight
03 Nov - 18:52:59 10° WSW 18:57:16 23° SSW 19:03:28 10° SE visible
03 Nov - 21:07:34 10° SW 21:09:32 11° SSW 21:11:42 10° SSW visible
